Precipitable_Water
1.18 1.23 1.32 1.29 1.36 1.41 1.39 1.35 1.21 1.06 1.09 1.21 1.19 1.29 1.29 1.28 1.25 1.22 1.24 1.22 1.25 1.23 1.22 1.15 1.15 1.12 1.05 1.05 0.99 0.95 0.92 0.93 0.92 0.90 0.87 0.84 0.78 0.72
1.18 1.19 1.20 1.24 1.28 1.32 1.34 1.34 1.32 1.22 1.06 1.26 1.23 1.24 1.23 1.16 1.21 1.21 1.20 1.20 1.17 1.17 1.19 1.10 1.10 1.03 0.97 0.93 0.91 0.89 0.90 0.94 0.93 0.90 0.83 0.75 0.68 0.62
1.12 1.11 1.11 1.16 1.16 1.18 1.21 1.21 1.19 1.19 1.06 1.11 1.15 1.16 1.13 1.13 1.12 1.17 1.14 1.13 1.11 1.12 1.08 1.00 1.01 0.97 0.90 0.86 0.86 0.87 0.88 0.88 0.85 0.82 0.75 0.67 0.59 0.54
1.08 1.08 1.06 1.06 1.00 1.02 1.02 0.99 0.96 0.98 0.92 0.86 0.97 0.97 0.95 0.98 1.04 0.95 0.96 1.02 0.99 0.95 1.00 0.94 0.93 0.92 0.84 0.82 0.83 0.82 0.82 0.79 0.78 0.72 0.66 0.57 0.52 0.46
1.00 0.88 0.84 0.82 0.77 0.78 0.78 0.76 0.78 0.80 0.82 0.77 0.75 0.80 0.80 0.84 0.81 0.87 0.85 0.86 0.88 0.90 0.92 0.88 0.86 0.89 0.80 0.80 0.80 0.78 0.75 0.70 0.66 0.60 0.55 0.48 0.41 0.31
0.77 0.72 0.67 0.66 0.64 0.64 0.63 0.63 0.64 0.65 0.67 0.66 0.67 0.70 0.70 0.75 0.77 0.76 0.76 0.83 0.79 0.84 0.88 0.84 0.84 0.85 0.77 0.74 0.70 0.66 0.63 0.60 0.54 0.50 0.40 0.32 0.28 0.30
0.68 0.67 0.66 0.66 0.66 0.64 0.60 0.59 0.59 0.58 0.59 0.60 0.61 0.64 0.66 0.69 0.68 0.73 0.73 0.74 0.77 0.78 0.78 0.72 0.79 0.77 0.71 0.63 0.57 0.53 0.51 0.49 0.42 0.35 0.30 0.28 0.29 0.31
0.60 0.61 0.62 0.62 0.62 0.64 0.63 0.63 0.63 0.59 0.58 0.58 0.60 0.60 0.64 0.69 0.73 0.73 0.72 0.67 0.63 0.77 0.69 0.69 0.71 0.67 0.63 0.50 0.47 0.42 0.38 0.35 0.33 0.30 0.30 0.31 0.33 0.34
0.62 0.61 0.61 0.62 0.62 0.60 0.60 0.60 0.61 0.62 0.64 0.64 0.60 0.63 0.65 0.70 0.72 0.69 0.68 0.70 0.68 0.70 0.67 0.63 0.68 0.62 0.58 0.47 0.39 0.35 0.35 0.34 0.32 0.31 0.30 0.33 0.36 0.35
0.63 0.61 0.59 0.58 0.60 0.60 0.58 0.58 0.60 0.61 0.63 0.65 0.66 0.68 0.70 0.73 0.73 0.74 0.73 0.69 0.67 0.67 0.66 0.60 0.64 0.60 0.47 0.35 0.34 0.38 0.38 0.35 0.32 0.31 0.32 0.35 0.36 0.37
0.61 0.60 0.59 0.58 0.60 0.62 0.59 0.57 0.58 0.60 0.64 0.66 0.67 0.69 0.70 0.71 0.71 0.70 0.65 0.62 0.58 0.60 0.64 0.60 0.60 0.46 0.34 0.32 0.36 0.40 0.39 0.33 0.32 0.33 0.35 0.35 0.37 0.37
0.59 0.60 0.61 0.60 0.61 0.65 0.61 0.58 0.55 0.56 0.59 0.60 0.60 0.62 0.64 0.65 0.66 0.66 0.64 0.60 0.59 0.59 0.65 0.58 0.41 0.30 0.26 0.33 0.35 0.41 0.35 0.33 0.34 0.36 0.37 0.38 0.38 0.37
0.61 0.60 0.61 0.62 0.64 0.66 0.65 0.60 0.57 0.57 0.58 0.57 0.56 0.55 0.54 0.55 0.58 0.61 0.62 0.61 0.59 0.57 0.46 0.33 0.29 0.29 0.29 0.32 0.36 0.33 0.33 0.34 0.35 0.37 0.38 0.38 0.39 0.39
0.62 0.63 0.63 0.63 0.63 0.64 0.64 0.62 0.60 0.59 0.57 0.55 0.51 0.47 0.43 0.42 0.44 0.46 0.47 0.46 0.43 0.35 0.34 0.32 0.29 0.28 0.31 0.31 0.28 0.31 0.33 0.34 0.35 0.34 0.36 0.38 0.40 0.42
0.67 0.66 0.65 0.62 0.61 0.62 0.62 0.60 0.57 0.54 0.52 0.46 0.42 0.40 0.39 0.36 0.37 0.37 0.36 0.36 0.34 0.34 0.38 0.35 0.32 0.36 0.35 0.28 0.27 0.30 0.32 0.34 0.36 0.35 0.36 0.38 0.39 0.41
0.68 0.67 0.65 0.61 0.61 0.60 0.60 0.57 0.55 0.51 0.48 0.45 0.41 0.39 0.36 0.34 0.33 0.33 0.31 0.30 0.30 0.32 0.35 0.37 0.40 0.39 0.33 0.32 0.31 0.31 0.33 0.32 0.36 0.38 0.40 0.42 0.43 0.43
0.66 0.65 0.61 0.58 0.56 0.55 0.57 0.56 0.53 0.48 0.44 0.44 0.42 0.38 0.35 0.34 0.33 0.33 0.31 0.31 0.29 0.28 0.31 0.37 0.42 0.38 0.35 0.33 0.31 0.33 0.35 0.37 0.39 0.40 0.40 0.39 0.41 0.43
0.64 0.60 0.57 0.56 0.55 0.54 0.54 0.53 0.53 0.48 0.45 0.43 0.41 0.38 0.35 0.33 0.32 0.32 0.32 0.31 0.31 0.34 0.37 0.40 0.37 0.36 0.36 0.37 0.40 0.37 0.37 0.36 0.38 0.39 0.40 0.40 0.40 0.42
0.59 0.57 0.55 0.55 0.55 0.56 0.55 0.54 0.52 0.50 0.48 0.44 0.41 0.37 0.36 0.34 0.33 0.35 0.36 0.36 0.36 0.40 0.41 0.39 0.38 0.36 0.34 0.31 0.35 0.40 0.35 0.35 0.36 0.39 0.45 0.45 0.43 0.41
0.55 0.54 0.54 0.55 0.55 0.56 0.56 0.57 0.56 0.55 0.50 0.44 0.42 0.38 0.37 0.33 0.35 0.37 0.39 0.35 0.40 0.44 0.38 0.38 0.37 0.36 0.34 0.32 0.32 0.34 0.40 0.35 0.37 0.40 0.41 0.44 0.47 0.48
0.53 0.53 0.55 0.55 0.56 0.57 0.57 0.57 0.57 0.57 0.57 0.50 0.46 0.42 0.38 0.35 0.34 0.38 0.37 0.35 0.41 0.39 0.36 0.36 0.36 0.40 0.40 0.39 0.35 0.33 0.34 0.38 0.38 0.40 0.41 0.41 0.41 0.44
0.53 0.54 0.55 0.56 0.56 0.57 0.56 0.56 0.56 0.57 0.57 0.57 0.48 0.47 0.49 0.48 0.42 0.31 0.31 0.32 0.38 0.36 0.35 0.36 0.36 0.37 0.37 0.35 0.32 0.31 0.31 0.35 0.41 0.44 0.44 0.42 0.39 0.39
0.54 0.56 0.56 0.56 0.56 0.56 0.56 0.55 0.55 0.55 0.56 0.56 0.55 0.49 0.43 0.43 0.47 0.40 0.32 0.33 0.32 0.29 0.30 0.30 0.32 0.34 0.32 0.32 0.31 0.29 0.31 0.35 0.37 0.38 0.41 0.43 0.44 0.49
Wind_Speed
23 23 24 25 25 25 26 27 27 28 29 28 29 29 28 27 26 27 27 26 26 26 26 26 25 25 23 22 21 19 19 18 17 15 15 15 14 13
19 20 21 21 23 25 28 29 30 30 29 27 27 26 25 26 27 28 29 28 28 28 28 27 26 25 24 22 20 19 17 15 14 15 14 14 13 12
21 22 23 24 25 26 26 27 28 28 29 29 29 29 29 30 31 31 31 29 29 28 28 27 27 25 23 22 20 18 16 16 16 15 14 13 12 11
24 25 26 26 27 27 28 29 31 32 33 34 33 34 34 34 32 32 31 30 30 29 27 27 26 24 22 20 18 17 16 16 15 15 14 13 13 12
25 25 26 27 28 28 29 31 32 34 35 35 35 35 34 33 33 32 31 31 30 29 28 27 26 24 22 20 18 17 16 15 15 14 15 14 13 12
24 25 26 27 28 29 30 32 33 34 35 35 35 35 34 33 33 32 31 31 30 29 27 27 26 24 22 20 18 17 16 16 16 16 15 14 13 12
24 25 26 27 28 29 30 32 33 34 35 36 35 35 35 34 33 33 32 31 30 29 28 28 26 24 22 20 19 19 19 18 17 17 16 15 14 12
24 25 26 27 28 30 31 32 34 35 35 35 35 35 35 34 32 31 30 30 30 30 28 27 26 24 23 22 21 20 20 19 18 17 16 15 14 13
24 25 27 28 29 31 32 33 34 34 33 33 33 33 32 32 31 30 30 28 27 27 27 26 25 24 23 22 21 21 20 19 18 17 16 16 15 14
25 26 28 29 31 32 32 32 32 32 32 31 30 30 30 30 28 28 27 27 27 27 26 24 23 23 22 21 20 20 19 18 17 17 17 17 16 16
27 28 29 30 31 31 31 31 31 30 29 28 27 27 27 27 27 28 28 27 26 25 24 22 21 21 21 21 20 19 19 18 17 17 17 17 17 17
29 30 30 31 31 30 29 30 30 29 28 27 26 25 24 24 25 26 25 24 22 21 21 20 20 20 19 20 19 19 18 17 17 17 17 17 17 17
30 30 30 30 30 30 29 29 29 28 27 26 24 22 21 21 21 20 20 20 20 19 19 19 19 19 18 17 18 19 19 18 18 17 17 18 18 18
29 29 29 29 29 29 28 28 27 27 26 23 22 21 20 19 18 18 18 17 18 18 19 20 19 18 18 17 16 18 19 19 19 19 19 19 20 20
29 29 29 29 28 28 28 27 26 25 24 23 22 21 20 19 18 18 17 17 16 17 18 18 19 18 18 18 17 18 18 19 19 19 20 20 21 21
28 28 28 28 28 27 27 26 25 24 23 23 21 21 20 19 19 18 17 17 17 17 17 17 17 18 18 19 19 19 19 18 19 20 20 21 22 23
27 28 28 28 28 27 26 26 25 24 23 22 21 20 20 19 19 18 18 18 17 17 17 18 18 19 20 20 21 21 21 21 21 21 21 22 23 24
28 28 28 28 27 27 26 26 25 24 23 22 21 21 21 20 19 19 18 18 18 19 19 19 19 19 20 21 23 21 21 21 21 21 22 22 24 25
28 28 28 28 27 27 27 26 25 24 23 23 22 21 21 21 21 21 21 20 21 21 20 20 20 20 20 20 20 21 22 21 22 22 22 23 23 25
28 28 28 27 27 27 26 26 26 25 24 24 23 23 22 23 22 23 23 23 23 22 22 22 22 22 22 21 21 21 22 22 22 23 23 24 26 28
27 27 27 27 27 27 27 27 26 26 25 25 24 24 24 23 24 25 25 24 24 24 24 25 25 25 24 24 24 24 25 26 25 25 25 26 26 26
28 28 28 28 28 28 28 27 27 27 27 26 26 25 26 27 26 25 25 26 26 26 26 26 26 26 27 27 27 27 27 27 28 28 28 28 26 25
30 30 30 30 29 29 29 28 28 28 27 27 27 27 27 27 28 28 27 28 27 28 28 28 29 29 29 30 30 30 30 30 30 30 30 31 31 31
Wind_Direction
286 287 283 287 280 280 277 279 279 279 280 277 279 278 279 279 278 281 281 284 284 286 288 295 298 299 299 297 293 289 282 274 268 268 270 271 272 273
289 289 291 291 287 284 281 283 280 279 280 279 280 280 279 278 279 281 282 282 284 284 286 291 295 296 294 293 289 284 275 268 264 265 267 269 266 267
286 288 291 292 291 289 285 284 283 279 280 279 281 280 280 280 281 281 283 282 282 283 286 287 291 291 290 288 285 278 269 263 265 262 263 262 261 263
285 288 289 290 291 288 286 285 284 282 282 281 280 280 281 281 279 282 280 279 281 282 281 284 286 286 287 285 280 271 265 262 259 257 256 258 258 259
285 287 289 291 291 289 287 287 286 284 282 282 281 282 282 281 280 280 280 279 279 278 279 279 280 281 281 278 273 266 262 259 254 254 256 255 253 253
286 288 290 292 293 291 290 290 288 286 285 282 281 281 281 281 280 279 278 276 277 276 275 276 276 276 274 270 267 262 258 257 254 255 253 250 249 247
287 289 291 292 292 293 293 293 292 290 287 283 282 280 279 279 278 278 277 276 274 273 273 274 272 271 267 263 262 261 258 257 254 252 249 246 242 241
289 292 292 293 294 294 295 296 295 293 289 285 282 280 278 277 277 276 275 274 273 269 271 271 269 265 261 259 260 260 257 255 251 247 243 240 236 239
290 291 293 294 295 296 297 298 297 295 291 287 284 281 279 277 276 275 274 271 270 272 270 269 264 260 258 257 258 257 253 249 246 242 238 234 236 243
291 293 295 296 296 297 298 299 299 297 293 289 286 284 280 278 276 274 271 271 273 271 267 265 260 256 254 255 256 253 247 243 240 237 234 235 241 247
291 293 295 297 297 297 297 298 299 299 297 292 289 286 282 278 275 274 272 271 272 269 261 259 254 252 252 254 251 246 241 239 236 236 237 240 244 250
291 293 295 296 297 297 296 297 298 299 298 293 288 287 285 282 278 275 271 269 267 263 256 252 251 250 255 251 245 240 236 234 235 237 239 242 246 253
291 292 293 294 295 295 294 297 297 297 296 294 287 285 286 284 281 275 271 265 261 259 252 252 251 250 249 246 241 237 234 235 238 240 242 247 251 258
289 291 292 293 295 294 294 296 297 297 295 291 285 282 284 282 279 274 272 265 261 257 252 252 253 246 242 241 241 236 235 239 241 244 247 252 257 262
287 289 291 293 294 295 294 295 295 295 293 290 282 281 279 277 277 272 269 263 259 256 255 253 247 244 241 240 240 238 239 242 244 247 252 257 261 265
285 288 290 291 293 292 293 294 294 292 289 288 282 278 276 274 274 268 263 262 260 257 253 249 244 242 241 242 242 242 244 246 248 252 257 261 265 268
285 287 288 289 291 290 290 291 292 291 288 286 282 276 275 271 268 266 263 261 259 254 252 250 247 246 246 245 246 247 248 250 253 256 261 266 269 270
285 286 287 287 289 288 287 288 288 288 286 283 279 275 272 268 265 263 261 258 255 254 255 251 248 248 250 250 247 250 251 253 255 258 264 271 274 274
283 284 285 286 287 287 286 285 285 285 285 281 278 274 270 267 262 261 260 259 256 256 254 250 247 247 250 252 253 250 253 256 257 262 267 271 277 279
282 283 284 284 284 285 285 284 284 282 282 280 276 273 270 266 262 262 261 260 258 255 252 250 249 248 250 253 254 258 255 257 261 265 270 275 280 282
281 282 282 283 283 284 284 283 281 280 279 278 275 271 268 267 266 264 259 257 257 255 253 252 252 252 253 255 257 259 261 260 263 268 273 277 283 284
280 280 282 283 284 283 283 283 281 279 278 276 274 272 269 266 264 263 261 259 257 255 255 255 255 253 253 254 257 259 262 264 266 269 272 275 280 283
279 280 281 282 282 282 282 281 280 279 278 276 272 271 269 268 263 262 261 260 259 257 256 256 257 256 256 257 258 260 262 265 268 271 273 274 277 278